Wind_Speed
27 27 27 26 25 25 27 27 27 26 26 26 26 27 27 26 27 27 27 26 27 27 27 27 27 27 27 27 28 28 28 28 28 27 27 28 28 28 27 27 27 27 27
26 27 28 27 27 26 26 27 28 27 27 27 27 27 27 27 27 28 28 27 28 28 28 28 29 29 29 30 30 30 30 31 31 30 30 30 30 30 30 30 30 29 29
28 28 28 28 28 28 28 28 28 28 27 27 27 27 28 28 28 29 30 30 29 30 30 31 30 30 31 31 32 32 32 33 33 33 33 32 32 32 31 31 31 32 31
29 29 28 28 28 29 28 28 29 29 29 28 28 29 29 28 29 30 30 30 31 31 31 32 33 33 33 33 34 33 34 34 34 34 34 34 34 34 33 34 33 33 33
29 29 29 29 29 29 29 29 30 30 30 30 30 30 30 30 30 30 31 31 32 32 33 34 35 35 35 35 35 34 34 35 35 35 35 35 35 35 35 35 35 35 35
30 30 30 30 30 30 30 30 30 31 31 31 31 31 31 30 31 32 32 32 32 33 34 34 35 35 36 36 36 36 36 36 36 36 36 36 36 36 36 36 36 36 37
31 31 31 31 32 32 32 32 31 31 31 31 32 32 32 31 31 32 32 33 34 34 34 34 35 36 36 36 37 37 37 37 37 37 37 37 37 38 38 38 38 38 38
33 32 31 32 32 33 32 32 32 32 31 31 32 32 32 32 32 32 32 33 34 34 34 35 35 36 37 38 38 38 38 38 38 37 38 38 39 40 40 40 40 40 40
34 33 33 33 33 33 33 32 32 32 32 33 33 33 33 33 33 33 33 34 34 35 35 35 36 37 37 38 38 38 39 39 39 39 40 40 41 41 41 41 41 41 42
35 35 34 34 34 34 34 33 33 32 33 33 34 34 34 34 34 34 34 35 35 35 35 35 36 37 38 38 39 39 39 40 40 41 42 42 42 42 42 42 42 42 42
36 36 36 36 35 35 35 35 34 34 33 34 34 35 35 36 35 35 35 36 36 36 37 37 37 37 38 38 39 39 40 40 40 42 42 43 42 43 43 44 43 43 43
38 37 38 37 36 36 36 36 36 35 35 35 36 36 36 37 37 37 37 37 37 36 37 37 37 37 38 38 38 39 40 41 41 42 42 42 42 43 43 43 43 43 44
39 38 38 38 37 37 37 37 37 37 37 37 37 37 38 38 38 38 38 38 38 37 37 37 37 37 38 38 38 39 40 41 42 42 43 43 44 43 43 43 43 43 44
40 40 40 40 38 38 38 38 38 38 39 38 38 38 39 39 39 39 39 39 38 37 38 38 39 38 38 39 39 40 40 40 41 42 42 43 44 44 44 44 44 44 45
41 41 41 41 40 40 40 40 39 40 40 40 39 39 39 39 39 39 39 39 39 39 39 39 39 39 39 39 40 40 39 40 42 42 43 43 43 44 44 45 45 45 45
42 41 41 41 41 41 40 40 41 40 40 40 40 39 39 39 39 39 39 40 40 40 39 39 39 39 39 40 39 40 41 42 42 43 43 43 43 43 43 44 45 45 45
43 42 42 41 42 42 42 42 41 41 41 41 40 40 40 40 40 40 40 40 39 39 39 39 39 38 39 39 39 40 40 41 41 42 43 43 43 43 44 44 44 45 46
43 43 43 43 43 43 42 42 42 42 42 41 41 41 40 39 39 39 39 39 39 39 40 40 38 38 39 40 40 41 41 40 41 42 42 43 44 45 45 45 45 46 46
43 43 43 44 44 43 43 43 43 42 42 41 41 40 40 40 39 39 39 40 40 40 40 40 39 39 38 39 40 40 40 40 40 41 42 42 43 44 45 45 46 46 47
44 44 43 44 44 43 43 43 43 43 42 41 40 40 39 39 39 40 40 40 40 39 39 40 39 39 39 39 39 39 39 39 39 40 41 41 42 42 43 44 45 46 47
44 44 44 44 43 43 42 42 42 41 41 40 39 39 39 39 39 40 39 39 39 39 39 39 39 39 38 38 38 38 38 38 39 39 41 41 41 41 42 43 44 45 46
44 44 44 44 43 43 42 41 41 40 39 39 39 39 39 39 39 39 38 38 38 38 39 39 39 38 38 38 38 39 39 39 39 40 41 40 41 41 41 43 44 44 46
45 44 44 44 43 42 41 41 39 39 38 38 38 37 38 38 38 37 38 38 38 38 38 38 39 39 38 38 39 40 40 40 40 40 40 40 41 41 42 43 44 45 46
45 45 45 44 43 42 41 40 39 39 38 38 38 38 38 38 38 38 38 38 38 38 38 38 38 38 39 39 40 40 41 41 41 40 40 41 41 42 43 44 45 46 47
44 45 45 44 44 43 42 40 40 40 40 39 39 39 39 40 39 39 39 38 38 38 38 38 39 39 40 40 41 41 42 42 41 41 41 41 42 43 43 44 45 46 48
43 43 44 44 44 43 42 41 41 41 40 39 39 38 39 39 39 39 39 39 39 38 38 39 39 40 40 41 42 42 42 42 41 41 41 42 43 44 43 43 44 45 46
Wind_Direction
257 258 257 256 256 255 254 253 255 255 257 258 258 258 258 258 257 257 257 257 257 257 257 258 258 259 261 261 260 260 259 260 262 262 261 262 262 262 262 263 264 265 267
256 257 257 256 256 256 255 254 255 256 258 260 260 259 259 259 258 259 258 257 258 258 258 259 258 259 260 261 261 261 261 262 264 264 264 263 262 262 263 264 265 265 267
257 257 257 257 256 257 256 255 256 257 259 260 261 261 260 261 259 259 258 257 258 259 259 259 259 259 261 262 262 263 264 264 264 264 264 265 264 263 263 264 265 266 267
257 257 258 257 257 257 257 257 257 258 259 260 262 262 262 264 262 260 259 259 259 260 260 260 260 261 262 262 263 264 265 265 264 264 265 265 266 265 264 266 265 267 268
256 257 257 258 258 258 258 257 257 259 259 260 261 262 263 263 263 262 261 259 259 260 261 261 261 262 263 264 263 264 265 266 265 264 265 265 266 266 266 266 266 267 267
256 257 258 258 258 259 260 259 259 259 260 260 261 262 263 263 261 261 262 261 260 261 262 263 263 263 263 264 263 264 265 266 266 265 265 266 266 266 266 267 268 268 268
257 257 259 259 259 260 261 259 260 261 261 262 263 262 262 262 261 261 262 262 261 262 264 263 264 264 264 264 263 264 265 265 266 266 265 265 266 267 266 267 267 267 268
257 258 259 260 259 259 260 262 263 263 263 263 264 263 262 261 261 262 262 262 263 264 264 264 265 265 265 264 263 264 264 265 266 266 265 265 266 267 267 267 266 267 268
257 258 259 259 258 258 259 262 264 264 264 264 264 264 262 262 262 262 263 265 266 266 265 264 265 265 265 264 264 265 265 266 266 266 266 265 265 266 268 267 267 268 268
257 257 258 258 258 260 261 263 264 265 265 265 265 264 263 264 264 263 264 266 266 267 267 266 267 266 265 266 266 267 266 266 267 267 267 266 266 266 268 268 268 268 269
256 257 257 259 259 260 261 262 263 264 265 265 265 265 264 264 265 265 265 266 267 267 267 267 268 269 269 268 268 268 267 267 267 267 267 267 267 266 266 268 269 269 270
256 257 257 258 258 259 260 262 263 264 264 265 265 265 264 264 265 266 267 267 268 268 268 269 269 269 270 269 269 270 269 269 269 269 269 268 269 269 268 269 269 270 271
255 256 257 257 258 259 261 262 264 264 264 264 264 264 265 265 265 266 267 268 268 268 269 269 271 271 271 270 270 270 271 270 270 270 270 270 270 271 271 271 271 271 272
255 256 256 258 259 260 261 263 263 264 264 264 265 265 265 266 266 267 267 268 268 268 270 270 270 271 271 271 271 270 271 270 271 271 271 270 270 271 271 271 272 272 272
255 256 257 258 259 261 261 262 263 263 264 264 265 266 266 267 267 268 268 268 268 267 269 270 271 271 271 271 271 271 271 271 272 272 272 271 270 271 271 271 273 273 272
255 256 257 258 259 260 261 262 263 264 263 264 265 266 267 267 268 268 268 269 268 268 269 270 272 273 272 271 272 271 271 272 272 272 271 271 272 271 272 272 272 273 273
256 256 257 258 259 260 261 262 263 263 263 264 265 266 267 267 268 268 268 268 268 268 269 271 272 272 271 271 272 272 272 273 272 272 272 272 272 272 272 273 273 273 274
256 256 257 258 259 260 261 262 263 263 264 264 265 265 266 266 267 267 267 267 268 268 270 271 271 271 271 271 273 273 273 273 274 274 273 273 273 272 273 273 274 275 274
256 256 257 258 259 259 260 261 262 263 264 264 264 264 264 265 265 266 267 268 268 268 270 270 271 271 272 273 273 274 274 274 275 274 273 274 274 274 275 275 275 275 275
256 256 257 258 258 259 260 260 261 263 263 263 262 263 263 264 265 265 266 268 268 269 270 270 271 272 273 274 274 275 275 275 276 277 276 276 277 277 277 277 277 276 276
256 256 257 258 259 260 260 261 262 262 262 261 261 262 263 264 266 266 266 267 267 269 269 270 272 273 274 274 275 275 275 276 277 278 278 279 279 279 278 279 279 279 279
256 257 257 258 259 260 260 260 261 260 260 260 261 262 263 264 265 265 266 267 268 269 270 271 272 274 275 275 276 277 276 277 278 278 278 279 280 279 279 279 279 280 281
255 256 256 257 258 258 259 258 258 258 259 261 262 263 264 265 265 266 266 267 269 269 270 271 273 274 275 276 277 277 277 277 278 278 278 280 280 280 279 279 279 280 282
255 255 255 256 256 257 258 257 257 258 260 261 263 264 265 265 266 266 267 268 269 269 270 271 273 274 275 276 277 278 278 279 279 278 280 281 281 281 280 280 281 282 283
256 256 255 255 256 256 255 256 257 258 259 260 262 263 264 265 265 266 267 267 268 269 270 271 272 274 274 276 277 279 280 281 280 280 280 282 283 283 282 283 284 284 284
256 256 256 255 254 254 254 255 256 257 258 260 261 262 264 265 266 266 267 267 268 269 271 271 272 274 275 277 279 279 279 279 280 280 282 283 285 285 284 285 286 286 287
Height
5789 5790 5791 5793 5794 5795 5797 5799 5800 5801 5802 5803 5805 5806 5807 5809 5810 5812 5813 5814 5815 5817 5818 5819 5820 5821 5822 5823 5824 5825 5826 5826 5827 5828 5829 5830 5830 5831 5832 5833 5833 5834 5834
5783 5784 5785 5787 5788 5790 5791 5793 5794 5795 5797 5798 5799 5800 5801 5803 5804 5805 5807 5808 5809 5810 5812 5813 5814 5815 5816 5817 5818 5819 5819 5820 5821 5822 5823 5824 5824 5825 5826 5826 5827 5828 5828
5777 5778 5779 5780 5782 5783 5785 5787 5788 5789 5791 5792 5793 5794 5795 5796 5797 5799 5800 5801 5802 5804 5805 5806 5807 5808 5809 5810 5811 5812 5813 5813 5814 5815 5816 5817 5818 5818 5819 5820 5820 5821 5821
5770 5772 5773 5774 5775 5777 5779 5780 5782 5783 5785 5786 5787 5788 5789 5790 5791 5792 5793 5794 5795 5797 5798 5799 5800 5801 5802 5803 5804 5804 5805 5806 5807 5808 5808 5809 5810 5811 5812 5812 5813 5814 5814
5763 5765 5766 5767 5769 5770 5772 5774 5775 5777 5778 5779 5780 5781 5782 5783 5784 5785 5786 5787 5788 5789 5790 5791 5792 5793 5794 5795 5795 5796 5797 5798 5799 5800 5800 5801 5802 5803 5804 5804 5805 5806 5806
5756 5758 5759 5760 5762 5763 5765 5767 5768 5770 5771 5772 5773 5774 5775 5776 5777 5777 5778 5779 5780 5781 5782 5783 5783 5784 5785 5786 5787 5788 5789 5789 5790 5791 5792 5793 5794 5795 5795 5796 5797 5797 5798
5748 5750 5752 5753 5755 5756 5758 5759 5761 5762 5763 5764 5765 5766 5767 5768 5769 5770 5771 5771 5772 5773 5773 5774 5774 5775 5776 5777 5778 5779 5780 5781 5781 5783 5784 5785 5785 5786 5787 5787 5788 5788 5789
5741 5742 5744 5746 5747 5749 5750 5752 5753 5754 5755 5756 5758 5758 5759 5761 5761 5762 5763 5763 5764 5764 5764 5765 5766 5766 5767 5768 5769 5770 5771 5772 5772 5773 5775 5776 5776 5777 5777 5778 5779 5779 5780
5733 5734 5736 5738 5739 5741 5743 5744 5745 5746 5747 5748 5749 5750 5751 5752 5753 5754 5754 5755 5755 5755 5756 5756 5757 5757 5758 5759 5759 5760 5761 5762 5763 5764 5765 5766 5767 5767 5768 5769 5769 5769 5770
5724 5726 5728 5729 5731 5733 5734 5735 5736 5738 5738 5739 5740 5741 5743 5744 5745 5745 5746 5746 5746 5747 5747 5747 5748 5748 5749 5749 5750 5751 5752 5752 5753 5754 5755 5756 5757 5757 5758 5758 5759 5759 5759
5715 5717 5719 5721 5723 5724 5726 5727 5728 5729 5730 5731 5731 5732 5733 5734 5735 5736 5737 5737 5737 5738 5738 5738 5739 5739 5739 5739 5740 5741 5741 5742 5743 5744 5744 5745 5746 5747 5747 5748 5748 5748 5748
5706 5708 5710 5712 5713 5715 5716 5718 5719 5720 5721 5722 5722 5723 5724 5725 5726 5726 5727 5728 5728 5729 5729 5729 5729 5729 5730 5730 5731 5731 5731 5732 5732 5733 5733 5734 5735 5736 5736 5736 5737 5737 5737
5696 5698 5700 5702 5703 5705 5707 5708 5709 5710 5711 5712 5713 5714 5714 5715 5716 5716 5717 5718 5718 5719 5719 5720 5719 5720 5720 5720 5721 5721 5721 5722 5722 5722 5723 5723 5724 5725 5725 5725 5725 5725 5725
5686 5688 5690 5691 5693 5695 5697 5698 5699 5700 5701 5702 5703 5704 5704 5705 5705 5706 5707 5707 5708 5709 5710 5710 5709 5710 5710 5711 5711 5711 5711 5711 5711 5712 5712 5712 5712 5713 5713 5713 5713 5714 5714
5675 5677 5679 5681 5683 5684 5686 5688 5689 5690 5691 5692 5693 5693 5694 5695 5695 5696 5696 5697 5698 5698 5700 5700 5700 5700 5700 5700 5700 5700 5700 5700 5700 5701 5701 5701 5701 5701 5701 5701 5701 5701 5701
5664 5666 5668 5670 5672 5674 5675 5677 5678 5679 5680 5681 5682 5683 5683 5684 5685 5685 5685 5686 5687 5687 5689 5690 5690 5689 5689 5689 5689 5689 5689 5689 5689 5689 5689 5689 5689 5689 5689 5689 5689 5688 5688
5652 5654 5656 5659 5661 5662 5664 5665 5667 5668 5669 5670 5671 5672 5672 5673 5674 5674 5675 5675 5676 5677 5678 5679 5679 5679 5679 5678 5678 5678 5678 5678 5677 5677 5677 5677 5676 5676 5676 5676 5676 5675 5675
5640 5642 5645 5647 5649 5651 5652 5654 5655 5656 5657 5659 5660 5660 5661 5662 5663 5663 5664 5665 5666 5666 5667 5668 5669 5668 5668 5668 5667 5667 5666 5666 5666 5665 5665 5664 5664 5663 5663 5663 5662 5662 5661
5628 5630 5633 5635 5637 5639 5640 5642 5643 5644 5646 5647 5648 5649 5650 5651 5652 5653 5653 5654 5655 5655 5656 5657 5657 5657 5657 5656 5656 5656 5655 5655 5654 5653 5652 5652 5651 5650 5650 5649 5649 5648 5647
5616 5618 5621 5623 5625 5627 5628 5630 5631 5633 5634 5635 5636 5637 5639 5640 5641 5641 5642 5643 5644 5644 5645 5645 5646 5646 5646 5645 5645 5644 5644 5643 5643 5642 5640 5640 5639 5638 5637 5636 5636 5635 5633
5604 5606 5608 5611 5613 5614 5616 5618 5619 5621 5622 5623 5625 5626 5627 5628 5629 5630 5631 5632 5632 5633 5633 5634 5634 5634 5634 5634 5633 5633 5633 5632 5631 5630 5629 5628 5626 5625 5624 5623 5622 5621 5619
5591 5594 5596 5598 5601 5602 5604 5606 5607 5609 5610 5612 5614 5615 5616 5617 5618 5619 5620 5621 5621 5622 5622 5622 5623 5623 5623 5622 5622 5621 5621 5621 5620 5619 5617 5616 5614 5613 5612 5610 5609 5608 5606
5579 5581 5584 5586 5588 5590 5592 5594 5595 5597 5599 5601 5603 5604 5605 5606 5607 5608 5609 5609 5610 5610 5611 5611 5611 5611 5611 5611 5611 5610 5609 5609 5608 5607 5605 5604 5602 5601 5599 5597 5596 5595 5593
5566 5569 5571 5573 5576 5578 5580 5582 5584 5586 5588 5590 5592 5593 5594 5595 5596 5596 5597 5598 5599 5599 5599 5600 5600 5600 5600 5599 5599 5599 5598 5597 5596 5595 5593 5593 5590 5589 5587 5585 5583 5581 5579
5553 5556 5558 5561 5564 5566 5568 5570 5572 5574 5577 5579 5580 5581 5583 5584 5585 5585 5586 5587 5588 5588 5587 5588 5588 5588 5588 5588 5587 5587 5586 5585 5584 5583 5581 5580 5578 5577 5574 5572 5569 5567 5565
5540 5543 5545 5548 5551 5554 5556 5558 5560 5562 5565 5567 5569 5570 5571 5572 5573 5573 5574 5575 5576 5576 5576 5577 5577 5577 5577 5576 5575 5574 5574 5573 5572 5571 5570 5568 5566 5564 5562 5559 5556 5553 5551